CDT,Max TemperatureF,Mean TemperatureF,Min TemperatureF,Max Dew PointF,MeanDew PointF,Min DewpointF,Max Humidity, Mean Humidity, Min Humidity, Max Sea Level PressureIn, Mean Sea Level PressureIn, Min Sea Level PressureIn, Max VisibilityMiles, Mean VisibilityMiles, Min VisibilityMiles, Max Wind SpeedMPH, Mean Wind SpeedMPH, Max Gust SpeedMPH,PrecipitationIn, CloudCover, Events, WindDirDegrees
2013-3-1,60,48,37,36,30,21,93,55,23,30.21,30.14,30.07,10,10,10,22,4,29,0.03,0,,313
2013-3-2,46,39,32,32,27,23,93,64,43,30.29,30.23,30.18,10,10,10,17,4,22,0.02,3,,338
2013-3-3,59,42,26,34,25,18,93,59,21,30.33,30.24,30.16,10,10,10,12,1,,0.01,0,,284
2013-3-4,71,52,33,55,45,32,93,68,43,30.16,30.05,29.97,10,10,10,22,6,29,0.00,3,,170
2013-3-5,77,62,48,59,48,30,88,59,23,30.23,30.05,29.94,10,10,7,18,8,28,0.01,4,,265
2013-3-6,66,50,35,34,26,16,75,43,14,30.36,30.29,30.22,10,10,10,15,7,22,0.00,0,,336
2013-3-7,64,48,33,39,32,25,93,58,24,30.39,30.30,30.26,10,10,10,9,2,,0.00,0,,155
2013-3-8,73,54,35,43,37,30,93,60,22,30.32,30.26,30.20,10,10,7,12,1,,0.00,0,,146
2013-3-9,69,58,46,59,50,43,88,70,52,30.19,30.11,29.98,10,10,7,20,7,28,0.00,1,,125
2013-3-10,77,70,62,64,61,59,88,76,61,30.00,29.93,29.87,10,9,7,24,12,30,0.00,6,Rain-Thunderstorm,145
2013-3-11,68,56,44,63,43,34,94,72,36,30.06,29.97,29.90,10,9,2,26,9,25,0.02,4,Rain,315
2013-3-12,69,52,35,43,36,30,93,61,23,30.24,30.15,30.06,10,10,10,10,2,,0.01,0,,349
2013-3-13,68,54,39,39,27,10,87,44,12,30.42,30.34,30.24,10,10,10,17,5,23,0.00,0,,346
2013-3-14,69,52,35,39,30,21,87,48,18,30.47,30.39,30.31,10,10,10,9,2,,0.00,0,,151
2013-3-15,77,59,41,48,38,30,93,51,19,30.34,30.24,30.14,10,10,5,16,4,29,0.00,0,,209
2013-3-16,77,60,44,55,49,41,93,63,34,30.16,30.05,29.97,10,10,10,16,5,21,0.00,1,,192
2013-3-17,78,64,51,63,57,50,94,74,44,29.99,29.93,29.84,10,10,7,17,4,22,0.00,3,,159
2013-3-18,84,76,68,66,63,57,94,71,45,29.93,29.85,29.76,10,9,7,16,8,22,0.00,5,Rain,189
2013-3-19,78,66,53,57,47,36,88,56,25,30.06,30.00,29.93,10,10,7,14,8,18,0.00,1,,49
2013-3-20,71,60,48,48,34,23,63,41,17,30.18,30.09,30.02,10,10,10,17,6,24,0.00,2,Rain,2
2013-3-21,68,54,41,45,34,27,76,47,21,30.09,30.00,29.89,10,10,10,12,4,,0.00,2,,113
2013-3-22,75,64,53,63,56,43,83,73,61,29.92,29.84,29.79,10,10,7,14,6,21,0.00,7,,116
2013-3-23,71,68,64,68,64,61,94,89,78,29.85,29.73,29.59,7,3,0,9,4,,0.00,8,Fog-Rain,95
2013-3-24,71,58,46,68,46,21,94,63,19,30.05,29.79,29.61,10,10,4,26,11,31,0.00,4,Rain,305
2013-3-25,60,48,35,32,23,10,75,44,14,30.29,30.17,30.05,10,10,10,21,11,30,0.00,0,,327
2013-3-26,59,46,32,30,24,16,87,49,20,30.43,30.36,30.29,10,10,7,16,5,26,0.00,0,,335
2013-3-27,64,48,32,36,27,19,87,51,20,30.47,30.38,30.31,10,10,10,9,3,,0.00,0,,112
2013-3-28,69,51,33,46,35,27,93,57,20,30.38,30.32,30.26,10,10,10,9,1,16,0.00,0,,161
2013-3-29,75,58,41,54,46,37,93,68,34,30.34,30.27,30.21,10,9,0,14,3,18,0.00,0,Fog,158
2013-3-30,77,62,48,57,51,46,94,68,36,30.22,30.13,30.03,10,8,0,16,4,23,0.00,2,Fog,188
2013-3-31,78,66,53,63,57,50,94,81,47,30.07,30.00,29.92,10,9,0,23,3,46,0.02,5,Fog-Rain-Thunderstorm,214